RH
53 57 54 53 56 54 51 44 36 21 16 13 7 6 6 7 10 26 33 32 17 11 11 10 9 8 7 8 8 8 9 11 16 22 27 27 26 26 27 26 26 26 29 28
39 44 47 50 46 49 54 58 57 46 41 31 24 19 13 12 10 9 7 6 7 9 12 20 24 28 33 37 31 28 24 23 23 24 24 23 23 22 21 18 19 22 25 29
38 34 32 31 32 32 35 43 54 59 60 55 50 33 34 33 33 35 32 24 16 10 9 7 6 6 8 11 15 16 18 16 15 11 9 8 7 7 8 9 14 18 24 22
33 33 27 22 20 18 18 19 23 36 39 46 54 58 54 39 38 39 37 41 44 45 43 30 15 12 11 10 8 8 7 7 7 8 8 8 8 8 8 9 10 14 22 24
17 16 15 14 14 14 14 13 14 16 19 26 38 44 47 54 60 59 53 50 46 42 48 48 53 52 48 41 31 20 14 14 14 13 14 14 14 18 24 27 30 32 38 40
12 12 12 12 12 12 13 13 12 16 17 16 19 24 30 43 52 55 60 61 56 60 56 47 41 41 44 48 52 52 52 50 46 44 45 43 36 32 24 26 30 36 42 49
20 18 17 16 16 16 16 15 15 15 15 16 18 18 21 25 48 60 64 63 62 63 63 63 62 61 58 51 46 48 45 49 49 46 50 37 40 44 47 48 52 51 48 49
28 27 26 26 26 27 27 25 26 26 26 24 23 22 21 22 35 57 66 69 68 68 64 63 61 63 64 64 63 59 53 53 52 47 45 37 44 47 49 49 41 51 48 55
62 69 64 50 37 32 33 33 31 36 40 39 47 51 54 63 64 67 69 71 72 71 69 69 61 61 60 54 58 67 68 65 57 52 50 35 44 54 57 53 31 53 56 55
40 45 51 61 69 70 65 64 63 64 67 68 70 71 73 73 72 72 75 77 79 78 75 71 67 62 64 58 58 60 66 67 65 67 58 42 53 64 62 57 52 52 58 61
45 56 78 78 72 75 76 79 74 68 66 70 68 74 74 74 79 79 75 75 77 82 80 79 76 68 64 59 58 62 62 70 67 79 71 54 73 72 74 77 73 66 64 60
89 88 87 86 86 85 81 84 79 75 70 71 72 75 78 73 80 80 73 76 78 77 81 78 74 66 58 59 55 63 66 83 84 78 72 80 84 87 96 97 88 77 74 71
94 94 95 94 94 92 87 89 94 87 76 73 71 77 78 76 76 73 71 72 81 76 86 79 76 67 68 69 64 68 69 86 81 100 80 100 100 100 99 98 88 81 76 82
86 85 82 81 82 86 84 79 78 75 70 65 70 74 69 68 69 70 69 73 83 91 94 85 77 75 72 69 72 61 75 74 95 78 81 100 95 100 100 100 98 95 92 84
97 92 92 92 91 88 87 82 84 86 78 62 54 70 84 78 80 87 99 98 96 95 88 80 78 76 86 73 65 42 73 71 86 87 91 100 83 92 91 94 99 100 100 100
79 78 78 81 88 90 92 88 85 83 84 79 66 60 67 79 83 94 98 99 95 94 86 80 74 82 100 97 69 60 70 80 92 93 88 99 100 100 100 100 100 100 100 100
79 71 71 68 68 72 78 80 74 82 89 84 71 63 62 62 70 91 96 95 90 90 84 71 75 75 97 97 75 67 84 93 98 100 100 98 100 100 100 100 100 100 100 100
100 100 100 99 99 100 100 100 99 99 100 100 91 76 77 80 72 67 69 73 76 71 65 64 61 59 51 49 49 50 51 52 54 57 60 64 72 83 97 100 100 100 100 100
100 100 100 98 97 97 100 100 100 100 97 94 88 81 76 69 66 62 58 53 47 40 34 27 26 27 26 26 26 27 27 28 26 26 27 30 30 29 38 44 48 90 100 99
74 78 81 79 78 76 78 77 73 68 54 51 43 32 35 44 35 33 30 24 17 18 16 17 16 25 44 66 53 48 98 95 54 21 15 21 35 44 50 57 68 100 100 100
11 13 15 18 17 16 14 12 12 13 14 13 12 11 9 9 8 8 9 9 10 9 13 14 19 34 50 77 87 77 76 74 74 66 75 100 100 100 100 100 100 100 88 100
7 7 8 10 12 12 14 14 14 13 11 13 11 10 10 10 10 11 12 12 14 18 28 37 63 100 100 100 100 100 100 100 100 100 100 100 91 100 99 96 100 100 100 100
19 20 19 20 20 19 17 15 14 15 14 14 13 12 12 13 14 17 20 20 18 36 53 100 100 100 100 100 100 100 100 100 100 100 100 100 100 100 100 100 100 100 100 100
22 22 21 20 17 16 15 14 14 14 16 16 18 20 18 17 16 23 22 29 27 30 36 68 100 100 91 94 99 100 100 100 100 100 100 100 100 98 100 100 100 100 99 96
16 14 19 29 27 24 22 18 16 19 22 20 19 20 21 22 22 23 25 42 41 44 82 100 100 100 92 90 86 81 77 74 72 73 82 89 91 90 86 83 84 86 84 80
33 48 53 39 34 33 33 33 30 28 26 26 27 27 26 26 30 33 56 77 72 96 95 98 98 87 75 73 74 67 54 44 44 44 45 45 46 50 49 47 46 48 55 58
60 62 50 42 36 39 43 37 34 33 33 33 33 32 32 34 35 36 61 99 100 100 89 70 60 66 68 65 62 66 77 78 70 62 57 48 41 41 39 39 36 37 33 32
Wind_Speed
8 8 10 13 16 16 15 14 12 10 9 9 8 8 9 8 8 4 1 1 3 5 6 8 9 9 10 11 13 14 16 16 17 18 18 19 20 22 23 26 25 26 29 24
10 9 8 6 9 12 16 16 15 13 11 9 6 4 3 2 4 5 5 6 5 7 8 9 10 11 12 13 14 14 15 16 16 17 19 20 21 23 24 26 27 24 30 24
14 14 14 14 13 12 11 13 14 15 16 15 15 12 9 8 6 6 8 10 12 13 13 14 14 15 15 16 17 19 19 20 22 23 25 25 25 27 30 32 31 33 28 29
23 21 20 20 20 19 20 19 16 16 17 17 18 17 19 19 18 16 15 12 13 14 17 20 20 21 22 23 24 25 26 26 28 29 31 32 31 31 33 34 35 38 32 36
31 30 29 28 27 26 26 26 26 24 25 25 23 23 22 24 24 25 25 24 23 21 21 18 19 22 23 24 26 28 29 30 31 30 34 37 36 32 36 38 37 41 39 35
37 37 38 36 35 34 33 33 33 32 31 31 31 30 29 30 29 28 29 31 30 30 31 29 28 27 28 29 29 30 30 32 35 35 35 40 41 31 37 40 40 43 45 40
44 43 43 43 43 42 42 41 40 40 39 39 38 37 36 37 35 34 33 34 35 36 37 38 37 37 37 36 35 35 35 36 40 42 39 47 44 39 36 40 42 44 45 41
51 51 50 50 49 50 49 49 49 48 48 46 45 45 44 43 42 40 38 39 40 40 40 41 44 43 44 44 44 42 42 43 46 47 47 48 45 47 39 43 46 44 41 46
60 59 59 59 58 57 57 56 56 56 57 55 53 53 52 51 50 48 45 44 44 45 45 46 49 49 48 50 50 48 47 48 51 53 54 54 56 54 49 50 53 43 49 53
65 65 65 66 65 65 65 65 64 63 62 59 59 59 56 53 51 51 49 48 48 48 47 50 51 52 54 55 55 53 54 55 56 57 59 59 58 57 59 58 57 61 61 60
72 71 72 71 70 67 66 63 61 59 59 59 57 55 55 56 54 52 51 51 50 51 54 56 57 58 58 59 58 58 58 59 59 61 65 66 64 65 63 63 63 65 66 67
73 74 73 72 71 70 65 63 62 61 61 60 59 58 58 58 57 58 59 59 60 61 61 61 63 63 63 61 61 60 61 60 63 66 66 66 65 67 67 67 67 68 69 69
69 69 68 68 67 67 67 66 66 67 68 64 63 61 62 62 62 64 63 62 61 60 60 60 62 64 63 62 61 61 62 63 67 66 64 66 64 64 63 64 67 69 67 67
70 70 70 70 70 69 70 69 69 69 69 69 64 64 62 59 57 59 61 59 57 55 55 57 60 61 63 62 62 63 62 68 64 66 65 63 62 64 64 65 66 67 66 67
62 63 63 63 63 63 63 65 65 64 65 65 64 57 53 55 55 56 54 56 57 58 60 60 61 62 66 63 64 63 61 65 70 70 66 69 69 69 70 70 70 71 71 73
62 60 61 60 58 57 57 56 56 57 59 60 60 59 56 56 57 56 57 59 60 62 63 65 67 67 68 71 73 66 69 70 72 75 74 75 75 76 76 76 75 74 75 75
62 65 63 63 61 60 59 60 61 59 60 62 64 64 64 65 64 58 57 59 62 65 68 70 70 70 72 77 77 69 71 75 76 80 81 81 79 80 78 75 72 66 66 66
57 56 56 55 53 52 53 56 57 58 58 59 62 63 61 62 66 69 71 69 68 67 68 69 70 70 73 78 75 75 75 74 78 80 80 80 80 79 78 75 69 66 62 62
58 57 58 58 59 58 58 58 57 56 58 60 60 59 60 67 68 69 71 72 72 72 69 66 65 65 65 70 71 68 66 69 74 75 74 73 73 73 72 72 71 65 54 60
50 50 50 51 52 53 53 54 54 55 56 57 56 57 59 61 62 63 64 65 64 66 66 64 62 56 54 50 53 48 46 54 62 66 64 63 61 62 62 60 59 60 55 60
53 52 52 52 51 51 51 50 49 49 49 50 50 50 49 49 50 50 52 53 56 59 61 61 59 56 54 48 44 48 52 53 55 50 47 47 51 53 54 60 63 61 70 67
47 46 45 43 42 41 40 40 42 44 44 46 48 48 49 51 52 52 53 52 52 52 53 52 48 38 40 44 47 45 45 48 45 47 49 52 50 60 64 62 68 71 70 64
35 35 35 35 38 39 39 40 41 41 42 44 45 46 47 47 48 47 47 47 47 44 42 39 42 44 44 45 45 46 44 44 46 50 49 49 55 60 63 63 60 63 70 76
31 33 34 35 37 37 37 38 39 40 40 40 39 38 38 38 39 41 43 45 45 43 41 38 47 57 61 61 58 52 47 51 52 54 54 54 56 55 58 61 61 66 71 74
29 30 30 29 30 32 34 36 37 35 34 33 32 34 37 38 39 39 41 38 37 36 29 27 37 43 48 52 54 56 57 56 52 50 56 62 62 62 63 64 65 66 68 69
22 21 22 26 27 28 28 28 29 29 30 31 34 36 37 38 39 38 34 33 31 31 38 39 45 48 49 48 48 50 51 55 56 56 57 59 60 61 62 64 66 72 76 78
18 19 23 24 25 24 25 27 29 29 30 32 35 36 38 39 39 38 36 34 40 42 46 47 48 48 51 55 59 60 58 59 60 60 59 58 59 61 62 60 57 57 60 62
Wind_Direction
6 28 38 23 17 20 22 30 28 42 48 60 61 52 52 46 37 41 35 214 225 226 228 235 239 246 253 259 261 264 268 270 272 275 277 281 283 285 288 293 298 301 300 308
310 324 345 5 11 6 358 357 4 3 9 9 20 48 67 40 355 343 333 322 309 300 287 275 268 265 261 260 260 260 264 270 270 274 278 281 283 285 288 290 294 300 295 303
277 289 297 308 316 326 335 337 332 337 338 341 338 326 323 321 312 307 303 301 298 290 281 281 282 282 281 281 281 281 279 280 281 282 281 280 282 284 287 288 291 288 298 291
275 276 279 288 293 300 304 305 306 309 311 315 317 318 313 307 304 302 296 286 288 285 285 285 282 280 280 280 279 279 278 278 279 281 280 280 279 280 282 285 285 286 290 285
270 273 275 277 278 282 287 290 294 297 300 302 301 301 301 302 299 298 295 293 293 286 283 282 279 280 282 282 283 283 282 282 279 278 283 283 280 283 286 285 287 288 287 290
265 270 273 274 276 277 278 281 284 287 289 292 295 296 297 297 294 292 290 287 285 288 287 285 281 280 281 282 280 282 284 284 285 286 287 284 282 286 281 285 287 286 288 290
266 267 269 273 275 277 280 280 282 284 286 286 287 289 289 294 295 294 288 285 282 279 281 286 286 286 285 284 282 281 282 280 281 283 279 284 291 291 289 289 289 288 288 292
268 270 271 271 272 275 278 279 281 282 283 284 287 287 289 288 288 289 287 286 286 284 282 278 280 284 287 286 282 283 283 283 284 283 285 286 285 289 296 289 285 282 290 285
263 264 266 268 271 273 274 275 277 279 281 283 284 284 285 286 286 285 285 282 280 280 281 283 283 285 288 286 283 283 282 282 282 285 286 288 292 297 296 288 287 292 283 281
264 265 268 270 272 272 274 277 278 280 280 282 282 282 284 284 283 283 282 281 279 277 276 276 278 280 281 282 281 283 283 282 282 282 284 284 287 292 288 290 291 286 287 284
263 266 268 270 273 276 277 277 278 280 282 284 284 285 286 285 285 284 284 282 279 277 275 276 278 279 280 280 281 281 281 281 282 282 282 286 287 286 285 284 283 283 283 282
265 266 267 269 270 273 275 275 275 277 280 283 282 282 282 284 284 284 284 283 282 280 277 277 278 280 280 279 279 280 280 279 279 279 281 282 285 284 285 285 283 280 279 281
268 269 270 270 270 272 274 274 275 277 279 279 280 282 282 283 283 283 284 281 280 281 281 280 280 279 279 278 278 278 279 279 278 277 283 280 280 282 282 280 280 281 282 282
271 271 272 273 273 273 274 276 278 279 280 279 281 282 284 284 283 283 283 283 283 281 279 279 279 280 279 278 279 280 280 281 285 281 281 282 280 280 280 280 280 281 280 278
270 273 275 275 275 276 277 278 279 280 280 281 281 280 284 284 283 282 281 283 281 280 279 280 280 279 276 277 277 282 280 279 278 279 278 277 278 278 277 276 277 276 275 275
272 273 274 275 276 276 275 275 276 278 279 280 282 283 283 281 281 280 281 278 276 276 277 278 279 279 275 274 277 280 276 274 274 276 275 275 276 275 275 276 275 275 274 274
276 277 278 278 277 277 275 276 278 275 274 276 281 283 284 284 281 273 269 270 271 272 275 277 277 276 273 273 276 276 274 273 272 271 272 273 274 275 276 277 278 279 279 277
264 267 269 271 271 270 266 269 271 272 271 271 274 279 277 275 276 276 276 274 271 270 271 272 271 272 272 273 275 273 272 273 272 272 273 275 276 276 276 276 277 279 280 280
268 268 267 267 267 267 266 266 266 265 266 268 270 270 268 270 269 270 272 275 278 278 278 278 275 275 274 274 277 278 277 272 271 274 276 277 278 278 278 280 281 282 271 278
264 264 265 264 264 265 265 267 268 269 269 271 272 270 271 271 272 273 274 276 280 282 284 285 286 286 284 278 276 279 265 268 276 281 280 279 278 276 276 277 277 270 277 274
263 264 266 267 267 269 270 270 270 271 271 271 271 272 274 278 278 280 282 284 285 286 286 286 286 284 284 282 278 274 272 272 272 275 273 271 268 268 269 274 268 264 273 269
267 267 268 269 269 268 268 268 269 268 269 271 273 278 281 284 286 287 285 284 284 284 285 283 283 277 268 265 267 268 268 266 265 267 262 265 273 270 266 263 264 266 267 265
261 261 262 263 264 266 266 266 267 269 272 276 283 285 287 287 287 287 287 287 284 281 276 264 264 258 254 258 261 263 258 254 255 256 257 259 262 264 262 262 260 266 270 272
265 264 265 264 267 267 269 269 272 274 277 281 283 282 282 285 286 285 285 287 287 288 288 278 269 267 265 266 267 265 264 273 270 271 270 272 270 268 269 277 274 271 271 273
268 268 270 271 271 271 273 275 278 279 278 278 279 283 287 288 288 290 291 289 290 294 288 281 277 277 278 280 282 284 287 290 293 294 292 289 290 290 290 287 285 286 282 278
277 277 273 271 271 273 274 274 274 276 280 286 288 290 290 287 287 289 289 286 289 283 273 274 279 281 285 287 286 290 292 293 293 291 292 293 295 295 295 295 294 291 288 288
282 275 275 276 277 275 274 276 278 282 285 286 287 288 288 290 292 298 294 284 279 275 279 281 278 280 282 286 290 292 292 291 293 294 294 293 291 291 290 291 290 288 289 293